�ϑ��N����,2020/09/28,,,
�ϑ���,���{�^��,,,
�ϑ��n�_,24,,,
���x�v�ԍ�,A020,,,
,,,,
����,�C��,����,����,���l
9:30:00,-999,0,0,
9:31:00,-999,0,0,
9:32:00,-999,0,0,
9:33:00,-999,0,0,
9:34:00,25.4,0,0,
9:35:00,26,2,1.8,�܂�n�߂�
9:36:00,26.1,0,0,
9:37:00,26.3,0,0,
9:38:00,26.8,0,0,
9:39:00,27,0,0,
9:40:00,26.9,2,1.8,
9:41:00,26.9,2,1.8,
9:42:00,26.4,0,0,
9:43:00,26.1,0,0,
9:44:00,25.7,0,0,
9:45:00,25.7,0,0,
9:46:00,26,0,0,
9:47:00,26,0,0,
9:48:00,27.1,2,1.8,
9:49:00,28,0,0,
9:50:00,27.7,0,0,
9:51:00,27.2,4,2,
9:52:00,27.8,0,0,
9:53:00,27.9,0,0,
9:54:00,28,0,0,
9:55:00,27.9,2,1.5,
9:56:00,27.5,0,0,
9:57:00,28,0,0,
9:58:00,27,0,0,
9:59:00,27.7,0,0,
10:00:00,27.7,0,0,
10:01:00,27.6,0,0,
10:02:00,27.9,0,0,
10:03:00,28,0,0,
10:04:00,27.2,3,1.5,
10:05:00,27,0,0,
10:06:00,27.1,0,0,
10:07:00,27.4,0,0,
10:08:00,27.8,0,0,
10:09:00,27.6,0,0,
10:10:00,27.2,2,1.5,
10:11:00,27,2,1.5,
10:12:00,26.1,2,1.5,
10:13:00,26,0,0,
10:14:00,26.1,0,0,
10:15:00,25.9,0,0,
10:16:00,25.2,2,1,
10:17:00,25.1,0,0,
10:18:00,24.9,0,0,
10:19:00,24.3,0,0,
10:20:00,24.3,0,0,
10:21:00,24.2,0,0,
10:22:00,23.2,0,0,
10:23:00,23.3,0,0,
10:24:00,24.6,0,0,
10:25:00,24.8,0,0,
10:26:00,24.9,0,0,
10:27:00,25.1,0,0,
10:28:00,26,0,0,
10:29:00,26.1,0,0,
10:30:00,26.3,0,0,
10:31:00,26.9,0,0,
10:32:00,26.7,0,0,
10:33:00,26.3,0,0,
10:34:00,26,0,0,
10:35:00,26,2,1,
10:36:00,26.1,0,0,
10:37:00,26.4,0,0,
10:38:00,26.8,0,0,
10:39:00,26.2,0,0,
10:40:00,26.8,0,0,
10:41:00,25.2,0,0,
10:42:00,25.1,0,0,
10:43:00,25.1,0,0,
10:44:00,25.1,0,0,
10:45:00,25,0,0,
10:46:00,25.1,0,0,
10:47:00,25.3,0,0,
10:48:00,25.7,0,0,
10:49:00,25.9,0,0,
10:50:00,25.2,0,0,
10:51:00,25.1,0,0,
10:52:00,25.3,0,0,
10:53:00,25.2,0,0,
10:54:00,25.2,0,0,
10:55:00,25.1,0,0,
10:56:00,25.1,0,0,
10:57:00,25.1,0,0,
10:58:00,25.1,0,0,
10:59:00,25.2,0,0,
11:00:00,25.9,0,0,
11:01:00,26,0,0,
11:02:00,26.1,0,0,
11:03:00,26.1,0,0,
11:04:00,26.1,0,0,
11:05:00,26.4,0,0,
11:06:00,26.6,0,0,
11:07:00,27,0,0,
11:08:00,26.7,0,0,
11:09:00,26.8,0,0,
11:10:00,26.7,0,0,
11:11:00,27,0,0,
11:12:00,27.1,0,0,
11:13:00,27,2,1.8,
11:14:00,26.9,2,1,
11:15:00,26.7,0,0,
11:16:00,27,0,0,
11:17:00,26.3,0,0,
11:18:00,26.1,0,0,
11:19:00,25.9,0,0,���Ƃ�
11:20:00,26,0,0,
11:21:00,26,0,0,
11:22:00,26,0,0,
11:23:00,26,0,0,
11:24:00,26,0,0,
11:25:00,26,0,0,
11:26:00,25.9,0,0,
11:27:00,25.7,0,0,
11:28:00,26,0,0,
11:29:00,26,0,0,
11:30:00,26,0,0,
